Tracking 31027 objects as of 19-Jul-2025
HD Live streaming from Space Station
objects crossing your sky now

FREGAT R/B

Track FREGAT R/B now!


NORAD ID: 43688
Int'l Code: 2018-086B
Perigee: 19,320.3 km
Apogee: 19,668.1 km
Inclination: 64.2 °
Period: 690.0 minutes
Semi major axis: 25865 km
RCS: Unknown
Launch date: November 3, 2018
Source: Commonwealth of Independent States (former USSR) (CIS)
Launch site: PLESETSK MISSILE AND SPACE COMPLEX (PKMTR)

Note: This is a ROCKET BODY
Your satellite tracking list
FENGYUN 1C DEB
Track 1 satellite(s)




NASA's NSSDC Master Catalog

Two Line Element Set (TLE):
1 43688U 18086B   25198.89918553  .00000117  00000-0  00000-0 0  9994
2 43688  64.2178 207.4547 0067224 131.5574 229.0582  2.08703188 50847
Source of the keplerian elements: AFSPC